{"data":{"norad_id":82223,"intl_designator":"","name":"UNKNOWN","alt_names":[],"object_type":"UNKNOWN","status":"UNKNOWN","operator":null,"country":null,"launch_date":null,"launch_site_code":null,"launch_vehicle":null,"mission":null,"orbit_class":"UNKNOWN","rcs_meters":null,"size_class":null,"mass_kg":null,"dimensions":null,"purposes":[],"wikipedia_slug":null,"has_3d_model":false,"image_url":null,"decayed_at":null,"tle_current":{"epoch":"2026-05-23T10:34:13.865664Z","epoch_age_seconds":213105,"freshness":"STALE","line1":"1 82223U          26143.44043826  .00001393  00000+0  76179-3 0  9992","line2":"2 82223  99.3109  40.7062 0066397 254.5043 104.8789 14.12667546471611","mean_motion":14.12667546,"eccentricity":0.0066397,"inclination_deg":99.3109,"raan_deg":40.7062,"arg_perigee_deg":254.5043,"mean_anomaly_deg":104.8789,"bstar":0.00076179,"rev_number":47161,"period_min":101.93481149032,"perigee_km":802.26339166452,"apogee_km":898.25213709865,"semimajor_km":7228.3947643816,"source":"CELESTRAK","updated_at":"2026-05-25T13:38:11.185855Z"}}}